COSMOS 1527

Satellite information

Favourite Embed

Satellite Type and Status

PAYLOADIN ORBIT

Key statistics

Satellite COSMOS 1527 at a glance.

Uptime

15324

Days in orbit

Revolutions

≈ 12.5

Per day

Orbit

LEO

Low Earth Orbit

Inclination

74.0

Latest

Satellite identification and parameters

Extended collection of information and parameters for COSMOS 1527.

Object identification

Identified? True

Debris? False

Object name: COSMOS 1527

International designator: 1984-001F

Object number (NORAD): 14616

Object ID (CCSDS): 14616

Country: COMMONWEALTH OF INDEPENDENT STATES (CIS)

Current information (Y/N): Y

RCS size: MEDIUM

Orbital parameters

Period: 115.099 minutes

Inclination: 74.0061 deg

SMA: 7838.028 km

Apoapsis: 1460.869 km

Periapsis: 1458.916 km

RAAN: 148.4826 deg

Eccentricy: 0.00012458

Argument of periapsis: 43.6716 deg

Mean anomaly: 125.1578 deg

Mean motion: 12.51101605 rev/day

Mean motion (dot): -0.00000023 rev/day2

B* drag term: -0.000045423618 1/REarth

Two-line elements (TLE)

Creation date: Dec. 19, 2025, 2:08 a.m.

Reference frame: TEME

Reference center: EARTH

Epoch: Dec. 18, 2025, 9:17 p.m. UTC

TLE line 0: 0 COSMOS 1527

TLE line 1: 1 14616U 84001F 25352.88716870 -.00000023 00000-0 -45424-4 0 9993

TLE line 2: 2 14616 74.0061 148.4826 0001246 43.6716 125.1578 12.51101605504821

Live tracking on map

Real-time ground track for satellite COSMOS 1527.

In-orbit conjunctions

There are no conjunctions computed for COSMOS 1527, at the moment. Check back to stay up to date, as we update our databases every day.

Go to all conjunctions

Associated space launch

Military communications satellites

COSMOS 1527 was lifted into orbit during the mission ‘Kosmos-3M | Strela-1M 273-280’, on board a Kosmos-3M space rocket.

The launch took place on Jan. 5, 1984, 8:09 p.m. from 132/2.

For more information about the launch, click the button.

Launch to space Kosmos-3M | Strela-1M 273-280
Kosmos-3M | Strela-1M 273-280

Agency: N/A

Status: Launch Successful

Launch date: Jan. 5, 1984, 8:09 p.m. UTC

Rocket: Kosmos-3M

Launch pad: 132/2

Location: Plesetsk Cosmodrome, Russian Federation

...

Latest news about this satellite

There are no fresh news available about this satellite. Check back as we update our databases every day.


Newsletter sign-up

Weekly statistics, charts and insights to help you stay on top of the space industry.